Regional Weather Roundup
Issued by NWS

Home | Current Version | Previous Version | Graphics & Text | Print | Product List | Glossary On
Versions: 1 2 3 4 5 6 7 8 9 10 11 12 13 14 15 16 17 18 19 20 21 22 23 24 25 26 27 28 29 30 31 32 33 34 35 36 37 38 39 40 41 42 43 44 45 46 47 48 49 50
228
ASUS43 KOAX 101502
RWRNE

WEATHER ROUNDUP FOR NEBRASKA
NATIONAL WEATHER SERVICE OMAHA NE
900 AM CST SAT DEC 10 2016

NOTES: SATELLITE DATA IS BEING USED TO AUGMENT CLOUD COVER ABOVE
       12000 FEET.
       "FAIR" INDICATES FEW OR NO CLOUDS BELOW 12,000 FEET WITH NO
       SIGNIFICANT WEATHER AND/OR OBSTRUCTIONS TO VISIBILITY.

  * THESE STATIONS DO NOT REPORT WEATHER SUCH AS RAIN...SNOW OR FOG.

NEZ001>004-019>022-054>056-101600-
NEBRASKA PANHANDLE

CITY           SKY/WX    TMP DP  RH WIND       PRES   REMARKS
SCOTTSBLUFF    CLOUDY    17  12  80 SE12      29.90F WCI   4
ALLIANCE       CLOUDY    15  13  91 S16G25    29.90F WCI  -1
CHADRON        CLOUDY     6   1  80 CALM      29.97S
KIMBALL        CLOUDY    30  26  83 W7        29.87F WCI  23
SIDNEY         CLOUDY    20  16  84 S12       29.91F WCI   8
$$

NEZ057>060-069>072-079>082-101600-
SOUTHWEST NEBRASKA

CITY           SKY/WX    TMP DP  RH WIND       PRES   REMARKS
NORTH PLATTE   CLOUDY    19  13  77 SE13      30.05F WCI   6
IMPERIAL       CLOUDY    18  14  84 SE15      30.00F WCI   4
LEXINGTON      CLOUDY    20  14  78 S15       30.13F WCI   6
MCCOOK         CLOUDY    17  13  84 SE10      30.09F WCI   5
OGALLALA       CLOUDY    21  17  84 SE9       30.00F WCI  11
$$

NEZ005>010-023>029-035>040-094-101600-
NORTH CENTRAL NEBRASKA

CITY           SKY/WX    TMP DP  RH WIND       PRES   REMARKS
VALENTINE      CLOUDY     7   3  84 E12       30.12S FOG     WCI  -8
AINSWORTH      CLOUDY    14  12  93 SE6       30.12R WCI   5
BROKEN BOW     CLOUDY    19  15  84 SE12G22   30.12F WCI   7
O`NEILL        CLOUDY    14  11  90 SE8       30.19S WCI   2
ORD            CLOUDY    20  14  77 SE14      30.18F WCI   7
THEDFORD       CLOUDY    19  15  86 SE9       30.05F WCI   7
$$

NEZ041-046>049-061>064-073>077-083>087-101600-
SOUTH CENTRAL NEBRASKA

CITY           SKY/WX    TMP DP  RH WIND       PRES   REMARKS
GRAND ISLAND   CLOUDY    20  16  84 SE10      30.23F WCI   9
AURORA         CLOUDY    22  18  83 SE12      30.25F WCI  11
HASTINGS       CLOUDY    22  16  78 SE13      30.23F WCI  10
HEBRON         CLOUDY    26  18  71 SE10      30.29F WCI  16
HOLDREGE       CLOUDY    20  15  80 SE16      30.16S WCI   6
KEARNEY *      CLOUDY    21  12  68 SE16      30.19F WCI   7
YORK           CLOUDY    23  18  80 SE13      30.28F WCI  11
$$

NEZ011>018-030>034-042>045-101600-
NORTHEAST NEBRASKA

CITY           SKY/WX    TMP DP  RH WIND       PRES   REMARKS
NORFOLK        CLOUDY    18  15  88 SE13      30.26F WCI   5
ALBION         CLOUDY    20  17  86 SE13      30.25F WCI   7
BLAIR          CLOUDY    22  19  90 E8        30.33F WCI  12
FREMONT        CLOUDY    21  19  92 E7        30.34F WCI  13
TEKAMAH        LGT SNOW  21  18  88 E8        30.37F VSB 3/4 WCI  11
WAYNE          LGT SNOW  18  15  89 E12       30.30F WCI   5
$$

NEZ050>053-065>068-078-088>093-101600-
SOUTHEAST NEBRASKA

CITY           SKY/WX    TMP DP  RH WIND       PRES   REMARKS
LINCOLN        CLOUDY    25  17  72 SE8       30.35S WCI  16
OMAHA EPPLEY   CLOUDY    23  17  78 E9        30.37F WCI  13
BEATRICE       CLOUDY    27  18  71 SE7       30.32F WCI  19
FALLS CITY     CLOUDY    27  16  63 SE8       30.38F WCI  19
NEBRASKA CITY  CLOUDY    26  14  61 SE7       30.36F WCI  18
PLATTSMOUTH    CLOUDY    25  15  65 SE6       30.36S WCI  18
$$

NEZ044-045-051>053-067-101600-
OMAHA AREA

CITY           SKY/WX    TMP DP  RH WIND       PRES   REMARKS
OMAHA EPPLEY   CLOUDY    23  17  78 E9        30.37F WCI  13
BLAIR          CLOUDY    22  19  90 E8        30.33F WCI  12
FREMONT        CLOUDY    21  19  92 E7        30.34F WCI  13
MILLARD        CLOUDY    26  19  76 E7        30.36F WCI  18
PLATTSMOUTH    CLOUDY    25  15  65 SE6       30.36S WCI  18
WAHOO          PTSUNNY   24  17  77 E10       30.34F WCI  13
$$




USA.gov is the U.S. government's official web portal to all federal, state and local government web resources and services.